Location: Newark
(35.2672°N, 80.7344°W)
Time: 00:32:09
(UTC+00:00)

Transit 2A Rocket - Pass Details

Date: 31 January 2020
Orbit: 591 x 912 km, 66.7° (Epoch: 24 February)

Event Time Altitude Azimuth Distance (km) Brightness Sun altitude
Rises 16:57:56 0° 349° (N) 3,056 7.6 36.6°
Reaches altitude 10° 17:00:51 10° 8° (N) 2,197 7.0 36.7°
Maximum altitude 17:04:23 19° 53° (NE) 1,736 6.8 36.8°
Drops below altitude 10° 17:08:07 10° 98° (E) 2,343 7.8 36.9°
Sets 17:11:20 0° 115° (ESE) 3,334 8.7 37.0°
